Location: Paris
(48.6709°N, 2.3750°E)
Time: 05:10:30
(UTC+02:00)

YUBILEINY - Visible Passes

Search period start: 28 June 2022 00:00
Search period end: 08 July 2022 00:00
Orbit: 1479 x 1507 km, 82.5° (Epoch: 27 June)

Date Brightness Start Highest point End Pass type
(mag) Time Alt. Az. Time Alt. Az. Time Alt. Az.
28 Jun ? 04:32:20 10° N 04:39:11 24° ENE 04:45:57 10° ESE visible
29 Jun ? 03:43:47 10° NNE 03:48:18 15° NE 03:52:46 10° ENE visible
29 Jun ? 22:47:58 10° NW 22:49:57 11° NW 22:51:56 10° NNW visible
30 Jun ? 04:49:36 10° N 04:57:27 34° ENE 05:05:10 10° SE visible
01 Jul ? 04:00:35 10° N 04:06:52 21° NE 04:13:05 10° E visible
02 Jul ? 03:12:26 10° NNE 03:15:50 12° NE 03:19:13 10° ENE visible
02 Jul ? 05:07:01 10° N 05:15:30 47° ENE 05:23:50 10° SE visible
03 Jul ? 04:17:45 10° N 04:25:12 29° ENE 04:32:35 10° ESE visible
04 Jul ? 03:28:53 10° N 03:34:30 18° NE 03:40:05 10° E visible
05 Jul ? 02:41:41 10° NNE 02:43:20 11° NE 02:44:57 10° NE visible
05 Jul ? 04:35:07 10° N 04:43:20 41° ENE 04:51:28 10° SE visible
06 Jul ? 03:45:56 10° N 03:52:56 25° ENE 03:59:52 10° ESE visible
07 Jul ? 02:57:16 10° NNE 03:02:06 15° NE 03:06:53 10° E visible
07 Jul ? 04:52:35 10° N 05:01:17 58° ENE 05:09:51 10° SSE visible
